FW0245 Weather Reports


Display with metric or nautical units.
time (UTC)temp
F
wind
direction
speed
MPH
gust
MPH
rain 1hr
in
rain 24hr
in
rain mn
in
humidity
%
barometer
mb
20260903020548 78 360 0.0 0.0 0.00 0.01 0.00 84 1015.8
20260903020048 78 360 0.0 0.0 0.00 0.01 0.00 84 1015.8
20260903015548 78 360 0.0 0.0 0.00 0.01 0.00 84 1015.8
20260903015049 79 360 0.0 0.0 0.00 0.01 0.00 84 1015.8
20260903014551 79 360 0.0 0.0 0.00 0.01 0.00 84 1015.7
20260903014048 79 360 0.0 0.0 0.00 0.01 0.00 83 1015.7
20260903013549 79 360 0.0 0.0 0.00 0.01 0.00 83 1015.7
20260903013055 79 360 0.0 0.0 0.00 0.01 0.00 83 1015.7
20260903012546 79 360 0.0 0.0 0.00 0.01 0.00 82 1015.7
20260903012047 80 360 0.0 0.0 0.00 0.01 0.00 82 1015.7
20260903011548 80 360 0.0 0.0 0.00 0.01 0.00 82 1015.7
20260903011046 80 360 0.0 0.0 0.00 0.01 0.00 81 1015.6
20260903010546 80 360 0.0 0.0 0.00 0.01 0.00 80 1015.6
20260903010048 80 360 0.0 0.0 0.00 0.01 0.00 80 1015.5
20260903005549 80 360 0.0 0.0 0.00 0.01 0.00 80 1015.4
20260903005048 81 360 0.0 0.0 0.00 0.01 0.00 80 1015.4
20260903004545 81 360 0.0 0.0 0.00 0.01 0.00 79 1015.5
20260903004048 81 360 0.0 0.0 0.00 0.01 0.00 79 1015.4
20260903003546 81 360 0.0 0.0 0.00 0.01 0.00 79 1015.3
20260903003048 81 360 0.0 0.0 0.00 0.01 0.00 79 1015.1
20260903002545 81 360 0.0 0.0 0.00 0.01 0.00 79 1015.2
20260903002043 81 360 0.0 0.0 0.00 0.01 0.00 79 1015.1
20260903001544 82 360 0.0 0.0 0.00 0.01 0.00 78 1015.2
20260903001046 82 360 0.0 0.0 0.00 0.01 0.00 78 1015.1
20260903000544 82 254 0.0 0.0 0.00 0.01 0.00 77 1015.2
20260903000046 83 254 0.0 0.0 0.00 0.01 0.00 76 1015.1
20260902235544 83 254 0.0 0.0 0.00 0.01 0.00 76 1015.1
20260902235045 84 254 0.0 0.0 0.00 0.01 0.00 75 1015.2
20260902234557 84 254 0.0 0.0 0.00 0.01 0.00 74 1015.1
20260902234045 85 254 0.0 0.0 0.00 0.01 0.00 73 1015.0
20260902233543 86 254 0.0 0.0 0.00 0.01 0.00 72 1015.0
20260902233044 86 254 0.0 0.0 0.00 0.01 0.00 70 1014.9
20260902232543 86 254 0.0 0.0 0.00 0.01 0.00 70 1015.0
20260902232043 87 207 0.0 0.0 0.00 0.01 0.00 70 1014.9
20260902231542 87 207 0.0 0.0 0.00 0.01 0.00 69 1014.9
20260902231042 87 207 0.0 0.0 0.00 0.01 0.00 69 1015.0
20260902230545 88 207 0.0 0.0 0.00 0.01 0.00 69 1014.9
20260902230042 88 207 0.0 0.0 0.00 0.01 0.00 69 1014.8
20260902225542 88 207 0.0 0.0 0.00 0.01 0.00 68 1014.8
20260902225046 88 206 0.0 0.0 0.00 0.01 0.00 67 1014.9
20260902224604 89 206 0.0 0.0 0.00 0.01 0.00 66 1015.0
20260902224041 89 246 0.0 0.0 0.00 0.01 0.00 65 1015.0
20260902223543 89 225 0.0 0.0 0.00 0.01 0.00 65 1015.0
20260902223040 89 223 0.0 0.0 0.00 0.01 0.00 65 1015.0
20260902222541 90 249 0.0 0.0 0.00 0.01 0.00 64 1015.0
20260902222039 90 224 0.0 0.0 0.00 0.01 0.00 64 1015.1
20260902221539 90 235 0.0 0.0 0.00 0.01 0.00 63 1015.1
20260902221039 90 246 0.0 0.0 0.00 0.01 0.00 63 1015.1
20260902220541 90 243 0.0 0.0 0.00 0.01 0.00 61 1015.2
20260902220042 90 244 0.0 0.0 0.00 0.01 0.00 61 1015.2
20260902215539 90 238 0.0 0.0 0.00 0.01 0.00 62 1015.2
20260902215037 90 233 0.0 0.0 0.00 0.01 0.00 62 1015.2
20260902214537 90 232 0.0 0.0 0.00 0.01 0.00 60 1015.3
20260902214039 90 232 0.0 0.0 0.00 0.01 0.00 61 1015.2
20260902213538 90 240 0.0 0.0 0.00 0.01 0.00 60 1015.3
20260902213036 90 203 0.0 0.0 0.00 0.01 0.00 61 1015.3
20260902212539 90 233 0.0 0.0 0.00 0.01 0.00 61 1015.3
20260902212035 90 261 0.0 1.0 0.00 0.01 0.00 61 1015.4
20260902211537 91 248 0.0 1.0 0.00 0.01 0.00 60 1015.3
20260902211035 91 229 0.0 1.0 0.00 0.01 0.00 59 1015.4
20260902210535 91 238 0.0 0.0 0.00 0.01 0.00 59 1015.4
20260902210035 91 225 0.0 0.0 0.00 0.01 0.00 61 1015.4
20260902205533 90 113 0.0 0.0 0.00 0.01 0.00 61 1015.4
20260902205035 91 185 0.0 0.0 0.00 0.01 0.00 59 1015.4
20260902204539 91 248 0.0 0.0 0.00 0.01 0.00 60 1015.6
20260902204033 91 246 0.0 0.0 0.00 0.01 0.00 60 1015.7
20260902203532 90 250 0.0 0.0 0.00 0.01 0.00 60 1015.7
20260902203033 90 228 0.0 1.0 0.00 0.01 0.00 59 1015.7
20260902202532 91 242 0.0 3.0 0.00 0.01 0.00 58 1015.8
20260902202031 91 230 0.0 3.0 0.00 0.01 0.00 57 1015.8
20260902201532 91 254 0.0 1.0 0.00 0.01 0.00 58 1015.9
20260902201030 91 227 0.0 1.0 0.00 0.01 0.00 59 1015.8
20260902200531 91 209 0.0 0.0 0.00 0.01 0.00 60 1015.9
20260902200047 91 228 0.0 1.0 0.00 0.01 0.00 61 1016.1
20260902195529 91 259 0.0 3.0 0.00 0.01 0.00 58 1016.0
20260902195029 91 208 0.0 3.0 0.00 0.01 0.00 58 1016.1
20260902194529 92 230 0.0 3.0 0.00 0.01 0.00 59 1016.2
20260902194026 91 223 0.0 3.0 0.00 0.01 0.00 61 1016.2
20260902193525 91 238 0.0 3.0 0.00 0.01 0.00 63 1016.2
20260902193025 91 277 0.0 3.0 0.00 0.01 0.00 62 1016.4
20260902192524 90 241 0.0 1.0 0.00 0.01 0.00 61 1016.4
20260902192024 91 215 0.0 1.0 0.00 0.01 0.00 61 1016.4
20260902191530 91 199 0.0 1.0 0.00 0.01 0.00 63 1016.4
20260902191024 90 244 0.0 1.0 0.00 0.01 0.00 61 1016.4
20260902190528 91 252 0.0 0.0 0.00 0.01 0.00 63 1016.5
20260902190042 91 259 0.0 0.0 0.00 0.01 0.00 65 1016.6
20260902185524 91 252 0.0 1.0 0.00 0.01 0.00 63 1016.6
20260902185023 91 255 0.0 0.0 0.00 0.01 0.00 61 1016.6
20260902184524 91 219 0.0 0.0 0.00 0.01 0.00 60 1016.6
20260902184022 91 246 0.0 0.0 0.00 0.01 0.00 59 1016.6
20260902183522 91 233 0.0 0.0 0.00 0.01 0.00 62 1016.6
20260902183020 91 256 0.0 0.0 0.00 0.01 0.00 63 1016.8
20260902182519 90 253 0.0 2.0 0.00 0.01 0.00 63 1016.8
20260902182019 90 273 0.0 2.0 0.00 0.01 0.00 63 1016.8
20260902181518 90 254 0.0 5.0 0.00 0.01 0.00 62 1016.8
20260902181018 90 303 0.0 7.0 0.00 0.01 0.00 62 1016.9
20260902180517 90 264 0.0 7.0 0.00 0.01 0.00 65 1016.9
20260902180017 90 256 0.0 2.0 0.00 0.01 0.00 63 1016.9
20260902175517 90 115 0.0 0.0 0.00 0.01 0.00 63 1017.0
20260902175016 90 264 0.0 3.0 0.00 0.01 0.00 62 1017.1
20260902174515 90 232 0.0 3.0 0.00 0.01 0.00 64 1017.2
20260902173512 89 261 0.0 1.0 0.00 0.01 0.00 65 1017.3
20260902173012 89 280 0.0 2.0 0.00 0.01 0.00 64 1017.3
20260902172510 89 258 0.0 2.0 0.00 0.01 0.00 66 1017.4
20260902172013 89 264 0.0 1.0 0.00 0.01 0.00 64 1017.4
20260902171510 89 238 0.0 3.0 0.00 0.01 0.00 67 1017.6
20260902171012 89 274 0.0 3.0 0.00 0.01 0.00 64 1017.5
20260902170509 89 261 0.0 2.0 0.00 0.01 0.00 66 1017.5
20260902170009 88 282 0.0 4.0 0.00 0.01 0.00 67 1017.6
20260902165508 88 242 0.0 4.0 0.00 0.01 0.00 66 1017.6
20260902165010 89 263 0.0 3.0 0.00 0.01 0.00 64 1017.7
20260902164510 89 248 0.0 0.0 0.00 0.01 0.00 68 1017.7
20260902164005 88 269 0.0 4.0 0.00 0.01 0.00 69 1017.8
20260902163504 88 259 0.0 4.0 0.00 0.01 0.00 68 1017.7
20260902163003 87 268 0.0 2.0 0.00 0.01 0.00 68 1017.7
20260902162504 87 252 0.0 3.0 0.00 0.01 0.00 66 1017.8
20260902162004 87 274 0.0 11.0 0.00 0.01 0.00 67 1017.6
20260902161505 87 293 0.0 2.0 0.00 0.01 0.00 68 1017.7
20260902161001 88 270 0.0 0.0 0.00 0.01 0.00 70 1017.7
20260902160559 87 273 0.0 0.0 0.00 0.01 0.00 71 1017.7
20260902160105 87 265 0.0 0.0 0.00 0.01 0.00 70 1017.7
20260902155558 87 253 0.0 0.0 0.00 0.01 0.00 71 1017.7
20260902155058 87 289 0.0 0.0 0.00 0.01 0.00 69 1017.7
20260902154555 87 257 0.0 0.0 0.00 0.01 0.00 71 1017.6
20260902154053 87 242 0.0 1.0 0.00 0.01 0.00 72 1017.6
20260902153551 86 267 0.0 1.0 0.00 0.01 0.00 68 1017.7
20260902153050 86 266 0.0 1.0 0.00 0.01 0.00 69 1017.6
20260902152550 86 291 0.0 0.0 0.00 0.01 0.00 69 1017.7
20260902152048 85 262 0.0 1.0 0.00 0.01 0.00 71 1017.7
20260902151546 85 258 0.0 1.0 0.00 0.01 0.00 72 1017.7
20260902151045 85 286 0.0 1.0 0.00 0.01 0.00 72 1017.7
20260902150546 85 284 0.0 4.0 0.00 0.01 0.00 75 1017.8
20260902150042 85 288 0.0 4.0 0.00 0.01 0.00 74 1017.7
20260902145540 84 288 0.0 2.0 0.00 0.01 0.00 75 1017.7
20260902145039 84 236 0.0 2.0 0.00 0.01 0.00 74 1017.6
20260902144542 84 257 0.0 2.0 0.00 0.01 0.00 76 1017.7
20260902144037 84 265 0.0 2.0 0.00 0.01 0.00 75 1017.7
20260902143537 83 248 0.0 0.0 0.00 0.01 0.00 76 1017.6
20260902143034 83 227 0.0 0.0 0.00 0.01 0.00 77 1017.7
20260902142532 83 240 0.0 0.0 0.00 0.01 0.00 76 1017.8
20260902142031 83 265 0.0 0.0 0.00 0.01 0.00 77 1017.7
20260902141536 82 271 0.0 0.0 0.00 0.01 0.00 78 1017.7
20260902141028 82 230 0.0 0.0 0.00 0.01 0.00 78 1017.7
20260902140527 82 276 0.0 2.0 0.00 0.01 0.00 78 1017.7
20260902140025 81 257 0.0 2.0 0.00 0.01 0.00 78 1017.6
20260902135523 81 254 0.0 0.0 0.00 0.01 0.00 78 1017.7
20260902135022 81 261 0.0 0.0 0.00 0.01 0.00 78 1017.7
20260902134520 81 297 0.0 0.0 0.00 0.01 0.00 79 1017.6
20260902134019 80 286 0.0 0.0 0.00 0.01 0.00 78 1017.5
20260902133517 80 252 0.0 0.0 0.00 0.01 0.00 79 1017.6
20260902133017 80 261 0.0 1.0 0.00 0.01 0.00 79 1017.6
20260902132519 80 265 0.0 1.0 0.00 0.01 0.00 80 1017.6
20260902132014 79 264 0.0 3.0 0.00 0.01 0.00 81 1017.6
20260902131521 79 281 0.0 3.0 0.00 0.01 0.00 81 1017.7
20260902131012 78 236 0.0 0.0 0.00 0.01 0.00 83 1017.7
20260902130510 78 244 0.0 0.0 0.00 0.01 0.00 83 1017.6
20260902130008 77 274 0.0 0.0 0.00 0.01 0.00 84 1017.6
20260902125508 77 265 0.0 0.0 0.00 0.01 0.00 85 1017.6
20260902125007 77 256 0.0 0.0 0.00 0.01 0.00 85 1017.7
20260902124508 76 261 0.0 0.0 0.00 0.01 0.00 85 1017.6
20260902124006 76 260 0.0 0.0 0.00 0.01 0.00 85 1017.6
20260902123505 76 260 0.0 0.0 0.00 0.01 0.00 86 1017.6
20260902123005 76 263 0.0 0.0 0.00 0.01 0.00 86 1017.5
20260902122507 76 263 0.0 0.0 0.00 0.01 0.00 86 1017.4
20260902122004 75 264 0.0 0.0 0.00 0.01 0.00 87 1017.5
20260902121504 75 268 0.0 0.0 0.00 0.01 0.00 87 1017.5
20260902121004 75 269 0.0 0.0 0.00 0.01 0.00 87 1017.4
20260902120504 74 360 0.0 0.0 0.00 0.01 0.00 87 1017.4
20260902120001 74 360 0.0 0.0 0.00 0.01 0.00 87 1017.4
20260902115500 74 360 0.0 0.0 0.00 0.01 0.00 87 1017.4
20260902115104 74 360 0.0 0.0 0.00 0.01 0.00 88 1017.3
20260902114600 74 149 0.0 0.0 0.00 0.01 0.00 88 1017.4
20260902114059 74 360 0.0 0.0 0.00 0.01 0.00 88 1017.2
20260902113556 74 360 0.0 0.0 0.00 0.01 0.00 88 1017.2
20260902113110 74 360 0.0 0.0 0.00 0.01 0.00 88 1017.0
20260902112555 74 360 0.0 0.0 0.00 0.01 0.00 88 1017.1
20260902112054 73 360 0.0 0.0 0.00 0.01 0.00 88 1017.1
20260902111600 73 360 0.0 0.0 0.00 0.01 0.00 88 1017.1
20260902111053 73 360 0.0 0.0 0.00 0.01 0.00 88 1017.1
20260902110555 73 360 0.0 0.0 0.00 0.01 0.00 88 1017.1
20260902110055 73 360 0.0 0.0 0.00 0.01 0.00 87 1017.0
20260902105555 74 360 0.0 0.0 0.00 0.01 0.00 87 1017.1
20260902105052 74 360 0.0 0.0 0.00 0.01 0.00 87 1017.1
20260902104552 74 360 0.0 0.0 0.00 0.01 0.00 88 1017.1
20260902104051 74 360 0.0 0.0 0.00 0.01 0.00 88 1017.0
20260902103651 74 360 0.0 0.0 0.00 0.01 0.00 88 1017.0
20260902103050 74 360 0.0 0.0 0.00 0.01 0.00 88 1016.9
20260902102549 74 360 0.0 0.0 0.00 0.01 0.00 88 1016.9
20260902102048 74 360 0.0 0.0 0.00 0.01 0.00 87 1016.8
20260902101603 74 360 0.0 0.0 0.00 0.01 0.00 87 1016.8
20260902101048 74 360 0.0 0.0 0.00 0.01 0.00 87 1016.8
20260902100548 74 360 0.0 0.0 0.00 0.01 0.00 86 1016.8
20260902100048 74 360 0.0 0.0 0.00 0.01 0.00 86 1016.8
20260902095547 74 360 0.0 0.0 0.00 0.01 0.00 86 1016.9
20260902095046 74 360 0.0 0.0 0.00 0.01 0.00 86 1016.9
20260902094551 74 360 0.0 0.0 0.00 0.01 0.00 86 1016.9
20260902094046 75 360 0.0 0.0 0.00 0.01 0.00 85 1016.9
20260902093548 75 360 0.0 0.0 0.00 0.01 0.00 85 1016.9
20260902093043 75 360 0.0 0.0 0.00 0.01 0.00 85 1016.9
20260902092546 75 360 0.0 0.0 0.00 0.01 0.00 85 1016.9
20260902092042 75 360 0.0 0.0 0.00 0.01 0.00 84 1016.8
20260902091549 76 360 0.0 0.0 0.00 0.01 0.00 84 1016.9
20260902091041 76 360 0.0 0.0 0.00 0.01 0.00 84 1016.8
20260902090544 76 360 0.0 0.0 0.00 0.01 0.00 84 1016.9
20260902090040 76 360 0.0 0.0 0.00 0.01 0.00 84 1016.8
20260902085543 76 360 0.0 0.0 0.00 0.01 0.00 83 1016.8
20260902085040 76 360 0.0 0.0 0.00 0.01 0.00 83 1016.7
20260902084540 76 360 0.0 0.0 0.00 0.01 0.00 83 1016.7
20260902084040 76 360 0.0 0.0 0.00 0.01 0.00 83 1016.7
20260902083540 77 360 0.0 0.0 0.00 0.01 0.00 83 1016.6
20260902083039 77 360 0.0 0.0 0.00 0.01 0.00 83 1016.6
20260902082542 77 360 0.0 0.0 0.00 0.01 0.00 83 1016.5
20260902082039 77 360 0.0 0.0 0.00 0.01 0.00 83 1016.5
20260902081545 76 360 0.0 0.0 0.00 0.01 0.00 84 1016.4
20260902081038 76 360 0.0 0.0 0.00 0.01 0.00 84 1016.5
20260902080538 76 360 0.0 0.0 0.00 0.01 0.00 84 1016.5
20260902080038 76 360 0.0 0.0 0.00 0.01 0.00 85 1016.5
20260902075537 76 360 0.0 0.0 0.00 0.01 0.00 85 1016.5
20260902075037 76 360 0.0 0.0 0.00 0.01 0.00 85 1016.5
20260902074540 76 360 0.0 0.0 0.00 0.01 0.00 85 1016.5
20260902074037 76 360 0.0 0.0 0.00 0.01 0.00 85 1016.5
20260902073536 76 360 0.0 0.0 0.00 0.01 0.00 85 1016.5
20260902073035 76 360 0.0 0.0 0.00 0.01 0.00 85 1016.5
20260902072535 76 360 0.0 0.0 0.00 0.01 0.00 84 1016.4
20260902072036 76 360 0.0 0.0 0.00 0.01 0.00 84 1016.5
20260902071535 76 360 0.0 0.0 0.00 0.01 0.00 84 1016.4
20260902071037 76 360 0.0 0.0 0.00 0.01 0.00 83 1016.4
20260902070535 77 360 0.0 0.0 0.00 0.01 0.00 83 1016.4
20260902070034 77 360 0.0 0.0 0.00 0.01 0.00 83 1016.4
20260902065535 77 360 0.0 0.0 0.00 0.01 0.00 83 1016.5
20260902065036 77 360 0.0 0.0 0.00 0.01 0.00 83 1016.5
20260902064539 77 360 0.0 0.0 0.00 0.01 0.00 83 1016.5
20260902064034 77 360 0.0 0.0 0.00 0.01 0.00 83 1016.5
20260902063535 77 360 0.0 0.0 0.00 0.01 0.00 83 1016.6
20260902063033 77 360 0.0 0.0 0.00 0.01 0.00 83 1016.7
20260902062534 77 360 0.0 0.0 0.00 0.01 0.00 83 1016.7
20260902062033 76 360 0.0 0.0 0.00 0.01 0.00 83 1016.7
20260902061541 76 360 0.0 0.0 0.00 0.01 0.00 83 1016.8
20260902061033 76 360 0.0 0.0 0.00 0.01 0.00 83 1016.7
20260902060532 76 360 0.0 0.0 0.00 0.01 0.00 83 1016.7
20260902060037 76 360 0.0 0.0 0.00 0.01 0.00 83 1016.7
20260902055535 76 360 0.0 0.0 0.00 0.01 0.00 84 1016.6
20260902055031 76 360 0.0 0.0 0.00 0.01 0.00 84 1016.6
20260902054531 76 360 0.0 0.0 0.00 0.01 0.00 84 1016.5
20260902054034 76 360 0.0 0.0 0.00 0.01 0.00 84 1016.5
20260902053530 76 360 0.0 0.0 0.00 0.01 0.00 84 1016.4
20260902053036 76 360 0.0 0.0 0.00 0.01 0.00 83 1016.5
20260902052533 76 360 0.0 0.0 0.00 0.01 0.00 83 1016.5
20260902052029 76 360 0.0 0.0 0.00 0.01 0.00 83 1016.4
20260902051530 77 360 0.0 0.0 0.00 0.01 0.00 83 1016.4
20260902051028 77 360 0.0 0.0 0.00 0.01 0.00 83 1016.3
20260902050528 77 360 0.0 0.0 0.00 0.01 0.00 83 1016.3
20260902050027 77 360 0.0 0.0 0.00 0.01 0.00 83 1016.3
20260902045526 77 360 0.0 0.0 0.00 0.01 0.00 83 1016.3
20260902045026 77 360 0.0 0.0 0.00 0.01 0.00 83 1016.3
20260902044526 77 360 0.0 0.0 0.00 0.01 0.00 83 1016.3
20260902044026 77 360 0.0 0.0 0.00 0.01 0.00 83 1016.4
20260902043524 77 360 0.0 0.0 0.00 0.01 0.00 83 1016.3
20260902043028 77 360 0.0 0.0 0.00 0.01 0.00 83 1016.4
20260902042524 77 360 0.0 0.0 0.00 0.01 0.00 83 1016.3
20260902042024 78 360 0.0 0.0 0.00 0.01 0.00 83 1016.4
20260902041524 78 360 0.0 0.0 0.00 0.01 0.00 83 1016.4
20260902041023 78 360 0.0 0.0 0.00 0.01 0.00 83 1016.3
20260902040523 78 360 0.0 0.0 0.00 0.01 0.00 83 1016.3
20260902040022 78 360 0.0 0.0 0.00 0.01 0.00 84 1016.3
20260902035523 78 360 0.0 0.0 0.00 0.01 0.01 84 1016.3
20260902035023 78 360 0.0 0.0 0.00 0.01 0.01 84 1016.2
20260902034523 78 360 0.0 0.0 0.00 0.01 0.01 84 1016.2
20260902034021 78 360 0.0 0.0 0.00 0.01 0.01 84 1016.2
20260902033521 78 360 0.0 0.0 0.00 0.01 0.01 85 1016.2
20260902033033 78 360 0.0 0.0 0.00 0.01 0.01 85 1016.3
20260902032524 78 360 0.0 0.0 0.00 0.01 0.01 85 1016.3
20260902032021 78 360 0.0 0.0 0.01 0.01 0.01 85 1016.3
20260902031521 78 360 0.0 0.0 0.01 0.01 0.01 84 1016.4
20260902031022 78 360 0.0 0.0 0.01 0.01 0.01 84 1016.4
20260902030523 78 360 0.0 0.0 0.01 0.01 0.01 84 1016.5
20260902030020 78 360 0.0 0.0 0.01 0.01 0.01 84 1016.4
20260902025520 78 360 0.0 0.0 0.01 0.01 0.01 85 1016.5
20260902025023 78 360 0.0 0.0 0.01 0.01 0.01 85 1016.4
20260902024520 77 360 0.0 0.0 0.01 0.01 0.01 85 1016.4
20260902024020 77 360 0.0 0.0 0.01 0.01 0.01 85 1016.4
20260902023519 77 360 0.0 0.0 0.01 0.01 0.01 85 1016.5
20260902023020 77 360 0.0 0.0 0.01 0.01 0.01 85 1016.6
20260902022519 77 360 0.0 0.0 0.01 0.01 0.01 85 1016.6
20260902022018 77 360 0.0 0.0 0.00 0.00 0.00 85 1016.4
20260902021520 77 360 0.0 0.0 0.00 0.00 0.00 85 1016.4
20260902021018 78 360 0.0 0.0 0.00 0.00 0.00 85 1016.4